Location: Newark
(46.2031°N, 3.4731°E)
Time: 16:07:01
(UTC+00:00)

Envisat - Pass Details

Date: 17 September 2019
Orbit: 764 x 766 km, 98.1° (Epoch: 20 October)

Event Time Altitude Azimuth Distance (km) Brightness Sun altitude
Rises 19:35:46 0° 225° (SW) 3,224 6.5 -17.8°
Reaches altitude 10° 19:40:39 10° 267° (W) 2,306 6.4 -18.6°
Maximum altitude 19:41:20 10° 275° (W) 2,290 6.5 -18.7°
Drops below altitude 10° 19:42:01 10° 283° (WNW) 2,309 6.7 -18.8°
Sets 19:46:57 0° 325° (NW) 3,244 7.3 -19.6°
